Location: ????????
(37.6846°N, 24.0673°E)
Time: 14:21:43
(UTC+00:00)

CZ-2D R/B - Pass Details

Date: 14 July 2020
Orbit: 553 x 638 km, 97.9° (Epoch: 03 August)

Event Time Altitude Azimuth Distance (km) Brightness Sun altitude
Rises 01:03:43 0° 19° (NNE) 2,915 8.3 -20.5°
Reaches altitude 10° 01:06:01 10° 25° (NNE) 1,993 7.3 -20.2°
Maximum altitude 01:10:11 45° 99° (E) 831 4.4 -19.7°
Enters shadow 01:12:23 24° 159° (SSE) 1,259 4.9 -19.4°
